Valdosta Regional, GA

7:06 PM EDT on August 20, 2017 (GMT -0400)
Valdosta Regional

Weather History for KVLD - April, 2014

Change the Weather History Date:

Tuesday, April 1, 2014

  Actual Average Record
Temperature  
Mean Temperature 66 °F 63 °F  
Max Temperature 87 °F 76 °F 90 °F (2012)
Min Temperature 45 °F 50 °F 35 °F (2003)
Degree Days  
Heating Degree Days 0 4  
Month to date heating degree days 0 4  
Since 1 July heating degree days 1210 1570  
Cooling Degree Days 1 2  
Month to date cooling degree days 1 2  
Year to date cooling degree days 66 45  
Growing Degree Days 16 (Base 50)    
Moisture  
Dew Point 42 °F    
Average Humidity 51    
Maximum Humidity 86    
Minimum Humidity 16    
Precipitation  
Precipitation 0.00 in 0.13 in 2.35 in (2005)
Month to date precipitation 0.00 0.13  
Year to date precipitation 10.30 13.73  
Sea Level Pressure  
Sea Level Pressure 30.17 in    
Wind  
Wind Speed 2 mph (SSW)    
Max Wind Speed 13 mph    
Max Gust Speed 17 mph    
Visibility 10 miles    
Events      
T = Trace of Precipitation, MM = Missing Value Source: NWS Daily Summary

Daily Weather History Graph

Daily Weather History Graph

Search for Another Location

Airport or City:

Trip Planner

Search our weather history database for the weather conditions in past years. The results will help you decide how hot, cold, wet, or windy it might be!

Date:

Astronomy

Apr. 01, 2014 Rise Set
Actual Time 7:22 AM EDT 7:52 PM EDT
Civil Twilight 6:57 AM EDT 8:16 PM EDT
Nautical Twilight 6:29 AM EDT 8:45 PM EDT
Astronomical Twilight 6:00 AM EDT 9:13 PM EDT
Moon 8:31 AM EDT (4/1) 10:03 PM EDT (4/1)
Length of Visible Light 13h 18m
Length of Day
12h 30m
Waxing Crescent, 4% of the Moon is Illuminated
Apr 1
Waxing Crescent
Apr 7
First Quarter
Apr 15
Full
Apr 22
Last Quarter
Apr 29
New

Hourly Weather History & Observations

Time (EDT) Temp. Dew Point Humidity Pressure Visibility Wind Dir Wind Speed Gust Speed Precip Events Conditions
12:53 AM 54.0 °F 45.0 °F 72% 30.17 in 10.0 mi Calm Calm - N/A   Clear
1:53 AM 51.1 °F 43.0 °F 74% 30.16 in 10.0 mi Calm Calm - N/A   Clear
2:53 AM 50.0 °F 44.1 °F 80% 30.16 in 10.0 mi Calm Calm - 0.01 in   Clear
3:53 AM 50.0 °F 43.0 °F 77% 30.15 in 10.0 mi Calm Calm - N/A   Clear
4:53 AM 48.0 °F 42.1 °F 80% 30.14 in 7.0 mi Calm Calm - N/A   Clear
5:53 AM 48.0 °F 43.0 °F 83% 30.15 in 8.0 mi Calm Calm - N/A   Clear
6:53 AM 46.0 °F 41.0 °F 83% 30.17 in 6.0 mi Calm Calm - N/A   Haze
7:53 AM 46.9 °F 42.1 °F 83% 30.21 in 9.0 mi Calm Calm - N/A   Haze
8:53 AM 57.0 °F 50.0 °F 77% 30.23 in 10.0 mi Calm Calm - N/A   Haze
9:53 AM 66.9 °F 50.0 °F 54% 30.23 in 10.0 mi Calm Calm - N/A   Haze
10:53 AM 73.9 °F 46.9 °F 38% 30.23 in 10.0 mi SSE 3.5 mph - N/A   Haze
11:53 AM 78.1 °F 43.0 °F 29% 30.22 in 10.0 mi South 9.2 mph - N/A   Haze
12:53 PM 80.1 °F 39.9 °F 24% 30.20 in 10.0 mi South 8.1 mph - N/A   Partly Cloudy
1:53 PM 82.9 °F 39.9 °F 22% 30.18 in 10.0 mi SSW 6.9 mph - N/A   Partly Cloudy
2:53 PM 84.0 °F 39.0 °F 20% 30.16 in 10.0 mi South 9.2 mph - N/A   Partly Cloudy
3:53 PM 84.9 °F 37.9 °F 19% 30.14 in 10.0 mi Calm Calm - N/A   Clear
4:53 PM 87.1 °F 36.0 °F 16% 30.13 in 10.0 mi West 4.6 mph - N/A   Clear
5:53 PM 84.9 °F 37.9 °F 19% 30.13 in 10.0 mi SW 5.8 mph - N/A   Clear
6:53 PM 82.0 °F 39.0 °F 22% 30.13 in 10.0 mi Variable 3.5 mph - N/A   Clear
7:53 PM 75.0 °F 44.1 °F 33% 30.14 in 10.0 mi SSW 3.5 mph - N/A   Clear
8:53 PM 71.1 °F 41.0 °F 34% 30.16 in 10.0 mi Calm Calm - N/A   Clear
9:53 PM 63.0 °F 42.1 °F 46% 30.17 in 10.0 mi Calm Calm - N/A   Clear
10:53 PM 60.1 °F 43.0 °F 53% 30.19 in 10.0 mi Calm Calm - N/A   Clear
11:53 PM 55.9 °F 44.1 °F 64% 30.18 in 10.0 mi Calm Calm - N/A   Clear